{"data":{"norad_id":52303,"intl_designator":"2022-041AU","name":"STARLINK-3742","alt_names":[],"object_type":"PAYLOAD","status":"ACTIVE","operator":null,"country":"US","launch_date":"2022-04-21","launch_site_code":"AFETR","launch_vehicle":null,"mission":null,"orbit_class":"UNKNOWN","rcs_meters":null,"size_class":null,"mass_kg":null,"dimensions":null,"purposes":["comms"],"wikipedia_slug":null,"has_3d_model":false,"image_url":null,"decayed_at":null,"tle_current":{"epoch":"2026-09-19T17:53:09.645792Z","epoch_age_seconds":124862,"freshness":"FRESH","line1":"1 52303U 22041AU  26262.74525053  .00000038  00000+0  12488-4 0  9998","line2":"2 52303  53.1587 295.4040 0001170  83.7506 276.3629 15.33544248245191","mean_motion":15.33544248,"eccentricity":0.000117,"inclination_deg":53.1587,"raan_deg":295.404,"arg_perigee_deg":83.7506,"mean_anomaly_deg":276.3629,"bstar":1.2488e-5,"rev_number":24519,"period_min":93.900127229977,"perigee_km":464.44722214968,"apogee_km":466.04857421586,"semimajor_km":6843.3848981828,"source":"CELESTRAK","updated_at":"2026-09-20T09:00:40.018733Z"}}}